www.pogodaiklimat.ru

Погода и климат >> Архив погоды >> Беларусь >> Минск


АРХИВ ПОГОДЫ в Минске

Время (UTC), дата Ветер
(напр.,м/с)
 
Видим.   Явления Облачность Т
(С)
Тd
(С)
f
(%)
Тe
(С)
Тes
(С)
Комфортность P
(гПа)
Po
(гПа)
Тmin
(С)
Tmax
(С)
R
(мм)
R24
(мм)
S
(см)
03 14.05 штиль 0 22 км 8/0
[Ac trans]
+12.2 +3.8 56 +12 +12 по сезону 1021.0 993.9
06 14.05 ЮВ 1 22 км 10/8 660 м
[Sc Ac trans]
+13.8 +5.1 56 +14 +15 тепло 1021.0 994.0 +12.0
09 14.05 ЮВ 3 19 км 4/4 1020 м
[Cu hum]
+19.4 +6.6 43 +20 +27 тепло 1020.2 993.8
12 14.05 ЮВ 4
{11}
30 км 6/6 800 м
[Cu med, cong]
+19.2 +6.6 44 +20 +23 тепло 1020.1 993.7
15 14.05 ЮВ 4 26 км 4/0
[Ac trans]
+19.6 +7.0 44 +20 +23 тепло 1019.0 992.7
18 14.05 ЮВ 2 27 км 9/8 700 м
[Sc Ac trans]
+18.2 +7.1 48 +19 +19 тепло 1018.8 992.4 +20.9
21 14.05 В 1 27 км 8/8 900 м
[Sc]
+15.7 +7.4 58 +16 +16 тепло 1018.9 992.2
00 15.05 штиль 0 21 км 10/10 750 м
[Sc]
+14.0 +8.7 70 +14 +14 тепло 1018.6 991.7
03 15.05 штиль 0 19 км в посл. час ливневой дождь 10/8 480 м
[Sc Ac trans]
+12.8 +10.1 84 +12 +12 по сезону 1018.8 991.8
06 15.05 ЮВ 2 21 км {ливн. осадки} 10/10 500 м
[Sc]
+13.4 +10.5 83 +13 +13 по сезону 1018.5 991.6 +12.1 1
09 15.05 Ю 2 25 км 9/8 1320 м
[Sc Ac trans]
+15.7 +8.3 61 +16 +18 тепло 1018.6 991.9
12 15.05 Ю 1 29 км 8/6 1020 м
[Sc Ac trans]
+17.2 +8.3 56 +18 +23 тепло 1018.3 991.8
15 15.05 Ю 2 30 км 8/5 960 м
[Sc Ac trans]
+18.8 +5.8 43 +20 +21 тепло 1017.7 991.3
18 15.05 штиль 0 23 км 3/0
[Ac trans]
+17.2 +6.2 48 +17 +17 тепло 1017.4 990.9 +19.7
21 15.05 штиль 0 18 км 3/0
[Ac trans]
+12.6 +7.7 72 +12 +12 по сезону 1017.7 990.7
00 16.05 штиль 0 17 км 4/0
[Ac trans]
+10.6 +8.1 85 +10 +10 по сезону 1017.4 990.2
03 16.05 В 1 18 км 8/8 930 м
[Sc Ac trans]
+12.2 +9.2 82 +12 +12 по сезону 1016.2 989.2
06 16.05 ЮВ 1 23 км {дождь} 9/9 930 м
[Sc Ac und]
+14.9 +10.7 76 +15 +16 тепло 1015.7 989.0 +10.6 0.0
09 16.05 ЮВ 3 18 км 8/6 840 м
[Sc Ac trans]
+17.0 +11.3 69 +17 +20 тепло 1015.1 988.6
12 16.05 В 2 19 км 10/8 420 м
[Sc Ac lent]
+19.7 +12.7 64 +22 +22 комфорт 1013.8 987.6
15 16.05 В 2 20 км 10/10 900 м
[Sc Ac lent]
+20.1 +13.6 66 +23 +23 комфорт 1012.7 986.6
18 16.05 В 1 17 км слабая морось {дождь} 10/10 480 м
[Sc]
+18.8 +13.1 69 +21 +21 комфорт 1011.9 985.7 +20.5 0.0
21 16.05 ЮВ 1 14 км {морось} 10/9 870 м
[Sc Ac cuf]
+16.8 +14.3 85 +18 +18 тепло 1011.5 985.1
00 17.05 СВ 1 11 км {морось} 10/10 540 м
[Sc]
+15.5 +14.0 91 +16 +16 тепло 1009.7 983.2
03 17.05 В 1 7000 м дымка {гроза, ливн. осадки} 6/0
[Ac und]
+14.8 +14.2 96 +15 +15 тепло 1008.7 982.2
06 17.05 Ю 1 23 км {гроза, ливн. осадки} 8/8 600 м
[Sc]
+16.4 +12.0 75 +17 +19 тепло 1009.1 982.7 +14.7 3
09 17.05 Ю 2 27 км 8/8 720 м
[Sc]
+15.2 +10.2 72 +15 +18 по сезону 1010.8 984.3
12 17.05 Ю 2 30 км 8/8 630 м
[Sc]
+18.3 +10.0 58 +19 +22 тепло 1010.7 984.5
15 17.05 Ю 3 25 км 4/4 600 м
[Sc]
+19.8 +9.5 51 +21 +23 комфорт 1009.6 983.6
18 17.05 ЮВ 1 26 км 6/3 600 м
[Sc Ac trans Ci fib]
+18.6 +9.8 57 +20 +20 тепло 1009.6 983.4 +21.0
21 17.05 штиль 0
{10}
21 км {ливн. осадки} 4/4 600 м
[Sc]
+13.4 +11.6 89 +13 +13 по сезону 1010.3 983.6
00 18.05 штиль 0 15 км {ливн. осадки} 3/0
[Ac trans]
+11.8 +11.2 96 +11 +11 по сезону 1009.8 982.9
03 18.05 штиль 0 17 км 8/0
[Ac trans]
+11.4 +10.3 93 +11 +11 по сезону 1009.3 982.4
06 18.05 В 1 26 км 8/0
[Ac trans Ci sp]
+17.8 +10.9 64 +19 +24 тепло 1008.3 982.1 +10.8 0.1
09 18.05 ЮЗ 2 21 км 8/4 1000 м
[Cu med, cong Ci fib]
+21.3 +8.6 44 +22 +30 комфорт 1007.7 981.9
12 18.05 ЮВ 2 25 км 8/8 1000 м
[Cu med, cong]
+23.1 +8.0 38 +24 +27 комфорт 1006.4 980.8
15 18.05 ЮВ 1
{10}
8000 м гроза, ливневой дождь 10/10 800 м
[Cb cap]
+13.5 +13.2 98 +14 +14 по сезону 1009.0 982.3
18 18.05 штиль 0 10 км слабый ливневой дождь {гроза} 9/6 960 м
[Cb cap Ac trans]
+14.4 +13.5 94 +14 +14 по сезону 1008.1 981.5 +24.9 45
21 18.05 штиль 0 14 км {ливн. осадки} 8/0
[Ac trans]
+13.4 +12.8 96 +13 +13 по сезону 1009.5 982.8
00 19.05 СЗ 1 20 км {ливн. осадки} 10/0
[Ac trans]
+13.0 +11.8 92 +13 +13 тепло 1009.5 982.8
03 19.05 СЗ 1 17 км 10/8 720 м
[Sc Ac trans]
+12.3 +11.1 92 +12 +12 по сезону 1010.2 983.4
06 19.05 СЗ 2 16 км 10/10 400 м
[Sc]
+13.5 +12.0 91 +13 +13 по сезону 1011.7 985.0 +12.2 0.0
09 19.05 С 2 19 км 10/10 480 м
[Sc]
+14.9 +12.0 83 +15 +15 по сезону 1013.3 986.7
12 19.05 СЗ 3 23 км 10/10 450 м
[Sc]
+14.3 +11.0 81 +13 +13 прохладно 1014.7 988.0
15 19.05 СЗ 3 21 км 6/3 720 м
[Sc Ac trans]
+18.1 +9.3 56 +18 +20 тепло 1014.9 988.5
18 19.05 С 1 24 км ясно +14.9 +1.9 41 +16 +16 по сезону 1016.8 990.1 +18.4
21 19.05 С 1 27 км ясно +11.3 +3.1 57 +11 +11 по сезону 1019.0 991.8
00 20.05 С 1 26 км ясно +8.9 +2.0 62 +9 +9 по сезону 1020.7 993.2
03 20.05 С 1 25 км ясно +7.2 +3.1 75 +6 +7 холодно 1022.5 994.8
06 20.05 СЗ 1 35 км ясно +14.1 +3.0 47 +15 +22 тепло 1023.3 996.3 +7.0
09 20.05 СЗ 3 30 км 6/6 1000 м
[Cu med, cong]
+15.9 +1.6 38 +16 +21 по сезону 1023.5 996.7
12 20.05 С 3 21 км 8/8 1000 м
[Cu Sc]
+17.1 +1.5 35 +17 +19 по сезону 1023.4 996.7
15 20.05 С 3 30 км 6/6 1000 м
[Cu Sc]
+18.7 +1.2 31 +19 +21 тепло 1023.0 996.5
18 20.05 штиль 0 28 км 4/4 600 м
[Sc]
+16.2 +3.1 41 +16 +16 по сезону 1023.9 997.1 +19.1
21 20.05 штиль 0 19 км ясно +10.7 +5.8 72 +10 +10 прохладно 1025.4 998.0

 

Местоположение метеостанции Минск (город Минск, Беларусь): широта 53.93 долгота 27.63 высота над уровнем моря 231 м.

В архиве по умолчанию представлена погода в Минске за последнюю неделю. Архивные данные за месяц целиком и за предыдущие месяцы, начиная с января 2011 года, Вы можете получить, выбрав интересующий диапазон дат из раскрывающегося списка и нажав кнопку "Ввод!".


*Определитесь, кто Вы:
робот инопланетянин человек

Внимание! Время в таблицах - всемирное. Для получения местного времени необходимо прибавить поправку, которая в Минске равна 3 ч.

Смотрите также архив погоды в соседних городах и на ближайших метеорологических станциях:

Погода в Марьиной Горке (Минская область, Беларусь) (63 км)
Погода в Борисове (Минская область, Беларусь) (68 км)
Погода в Воложине (Минская область, Беларусь) (75 км)
Погода в Вилейке (Минская область, Беларусь) (77 км)
Погода в Столбцах (Минская область, Беларусь) (78 км)
Погода в Березино (Минская область, Беларусь) (90 км)
Погода в Слуцке (Минская область, Беларусь) (100 км)
Погода в Березинском Заповеднике (Минская область, Беларусь) (100 км)
Погода в Докшицах (Витебская область, Беларусь) (106 км)
Погода в Кличеве (Могилевская область, Беларусь) (121 км)

Пояснения к столбцам:

Ветер - указаны скорость ветра в м/с - средняя за 10 мин, порывы в срок и между сроками (в фигурных скобках) и направление, откуда дует ветер: С - северный, СВ - северо-восточный, В - восточный, ЮВ - юго-восточный, Ю - южный, ЮЗ - юго-западный, З - западный, СЗ - северо-западный.
Видимость - горизонтальная дальность видимости в метрах или километрах. При видимости от 1 до 10 км при отсутствии осадков обычно наблюдается дымка, при ухудшении видимости до 1 км и менее - туман. В сухую погоду видимость может ухудшаться дымом, пылью или мглою.
Явления - указаны атмосферные явления, наблюдавшиеся в срок или в последний час перед сроком; фигурными скобками обозначены явления, наблюдавшиеся между сроками (за 1-3 часа до срока); квадратными скобками обозначены град или гололедные отложения с указанием их диаметра в мм.
Облачность - указаны через наклонную черту общая и нижняя облачность в баллах и высота нижней границы облаков в метрах; квадратными скобками обозначены формы облаков: Ci - перистые, Cs - перисто-слоистые, Cc - перисто-кучевые, Ac - высококучевые, As - высокослоистые, Sc - слоисто-кучевые, Ns - слоисто-дождевые, Cu - кучевые, Cb - кучево-дождевые. Подробнее классификацию облаков см. в Атласе облаков (PDF).
T - Температура воздуха - температура, измеренная на высоте 2 м над землей.
Td - Температура точки росы - температура, при понижении до которой содержащийся в воздухе водяной пар достигнет насыщения.
f - Относительная влажность воздуха - влажноcть воздуха, измеренная на высоте 2 м над землей.
Te - Эффективная температура - температура, которую ощущает одетый по сезону человек в тени. Характеристика душности погоды. При расчете учитывается влияние влажности воздуха и скорости ветра на теплоощущения человека.
Tes - Эффективная температура на солнце - температура, которую ощущает человек, с поправкой на солнечный нагрев. Характеристика знойности погоды. Зависит от высоты солнца над горизонтом, облачности и скорости ветра. Ночью, в пасмурную погоду, а также при ветре 12 м/с и более поправка равна нулю.
P - Атмосферное давление - приведенное к уровню моря атмосферное давление.
Po - Атмосферное давление - измеренное на уровне метеостанции атмосферное давление.
Tmin - Минимальная температура - минимум температуры воздуха на высоте 2 м над землей.
Tmax - Максимальная температура - максимум температуры воздуха на высоте 2 м над землей.
R - Количество осадков - Количество выпавших осадков за период времени, мм. При наведении курсора мыши на число - период времени, за который выпало указанное количество осадков.
R24 - Количество осадков - Количество выпавших осадков за 24 часа, мм.
S - Снежный покров - Высота снежного покрова, см. При наведении курсора мыши на число - состояние снежного покрова и степень покрытия местности в баллах.